Midland, MI

6:57 PM EDT on March 26, 2017 (GMT -0400)
Barstow

Weather History for KIKW - May, 2013

Change the Weather History Date:

Monday, May 27, 2013

  Actual Average (KMBS) Record (KMBS)
Temperature  
Mean Temperature 53 °F -  
Max Temperature 69 °F 67 °F 88 °F (2016)
Min Temperature 37 °F 46 °F 41 °F (2008)
Degree Days  
Heating Degree Days 12    
Growing Degree Days 3 (Base 50)    
Moisture  
Dew Point 41 °F    
Average Humidity 64    
Maximum Humidity 99    
Minimum Humidity 32    
Precipitation  
Precipitation 0.00 in - - ()
Sea Level Pressure  
Sea Level Pressure 30.16 in    
Wind  
Wind Speed 4 mph (ESE)    
Max Wind Speed 15 mph    
Max Gust Speed 18 mph    
Visibility 10 miles    
Events      
Averages and records for this station are not official NWS values.
T = Trace of Precipitation, MM = Missing Value Source: NWS Daily Summary

Daily Weather History Graph

Daily Weather History Graph

Search for Another Location

Airport or City:

Trip Planner

Search our weather history database for the weather conditions in past years. The results will help you decide how hot, cold, wet, or windy it might be!

Date:

Astronomy

May. 27, 2013 Rise Set
Actual Time 6:01 AM EDT 9:07 PM EDT
Civil Twilight 5:26 AM EDT 9:42 PM EDT
Nautical Twilight 4:42 AM EDT 10:26 PM EDT
Astronomical Twilight 3:49 AM EDT 11:20 PM EDT
Moon 11:43 PM EDT (5/27) 8:38 AM EDT (5/27)
Length of Visible Light 16h 15m
Length of Day
15h 06m
Waning Gibbous, 91% of the Moon is Illuminated
May 27
Waning Gibbous
May 31
Last Quarter
Jun 8
New
Jun 16
First Quarter
Jun 23
Full

Hourly Weather History & Observations

Time (EDT) Temp. Dew Point Humidity Pressure Visibility Wind Dir Wind Speed Gust Speed Precip Events Conditions
12:13 AM 44.6 °F 42.4 °F 92% 30.26 in 10.0 mi Calm Calm - N/A   Clear
12:33 AM 44.1 °F 42.3 °F 93% 30.26 in 10.0 mi Calm Calm - N/A   Clear
12:52 AM 44.1 °F 42.8 °F 95% 30.25 in 10.0 mi Calm Calm - N/A   Clear
1:12 AM 44.4 °F 43.2 °F 95% 30.25 in 10.0 mi Calm Calm - N/A   Clear
1:33 AM 43.0 °F 41.7 °F 95% 30.25 in 10.0 mi Calm Calm - N/A   Clear
1:52 AM 42.4 °F 41.4 °F 96% 30.25 in 10.0 mi Calm Calm - N/A   Clear
2:12 AM 41.2 °F 40.3 °F 97% 30.25 in 10.0 mi Calm Calm - N/A   Clear
2:33 AM 41.0 °F 40.1 °F 97% 30.25 in 10.0 mi Calm Calm - N/A   Clear
2:52 AM 41.0 °F 40.3 °F 97% 30.25 in 10.0 mi Calm Calm - N/A   Clear
3:12 AM 40.3 °F 39.7 °F 98% 30.24 in 10.0 mi Calm Calm - N/A   Clear
3:33 AM 39.6 °F 39.0 °F 98% 30.24 in 10.0 mi Calm Calm - N/A   Clear
3:52 AM 39.0 °F 38.5 °F 98% 30.23 in 10.0 mi Calm Calm - N/A   Clear
4:13 AM 38.5 °F 38.3 °F 99% 30.23 in 10.0 mi Calm Calm - N/A   Clear
4:33 AM 39.2 °F 38.7 °F 98% 30.23 in 10.0 mi Calm Calm - N/A   Clear
4:52 AM 39.4 °F 39.2 °F 99% 30.23 in 10.0 mi Calm Calm - N/A   Clear
5:13 AM 38.7 °F 38.3 °F 99% 30.23 in 7.0 mi Calm Calm - N/A   Clear
5:32 AM 38.5 °F 38.3 °F 99% 30.22 in 7.0 mi Calm Calm - N/A   Clear
5:52 AM 37.8 °F 37.4 °F 99% 30.23 in 10.0 mi Calm Calm - N/A   Clear
6:13 AM 38.3 °F 37.9 °F 99% 30.23 in 10.0 mi Calm Calm - N/A   Clear
6:32 AM 39.2 °F 38.8 °F 99% 30.23 in 10.0 mi Calm Calm - N/A   Clear
6:53 AM 40.5 °F 40.1 °F 99% 30.23 in 10.0 mi Calm Calm - N/A   Clear
7:13 AM 41.2 °F 40.6 °F 98% 30.24 in 10.0 mi Calm Calm - N/A   Clear
7:32 AM 44.2 °F 43.7 °F 98% 30.24 in 10.0 mi Calm Calm - N/A   Clear
7:53 AM 47.8 °F 42.6 °F 82% 30.24 in 10.0 mi East 4.6 mph - N/A   Clear
8:13 AM 49.1 °F 41.0 °F 74% 30.23 in 10.0 mi East 3.5 mph - N/A   Clear
8:32 AM 50.9 °F 42.1 °F 72% 30.23 in 10.0 mi ENE 3.5 mph - N/A   Clear
8:53 AM 53.4 °F 41.7 °F 65% 30.23 in 10.0 mi East 4.6 mph - N/A   Clear
9:13 AM 55.2 °F 39.7 °F 56% 30.22 in 10.0 mi East 3.5 mph - N/A   Clear
9:32 AM 57.2 °F 38.7 °F 50% 30.22 in 10.0 mi ESE 6.9 mph - N/A   Clear
9:53 AM 58.3 °F 38.3 °F 47% 30.22 in 10.0 mi East 5.8 mph - N/A   Clear
10:13 AM 59.7 °F 38.7 °F 46% 30.22 in 10.0 mi ESE 5.8 mph - N/A   Clear
10:32 AM 60.8 °F 37.9 °F 43% 30.22 in 10.0 mi East 6.9 mph - N/A   Clear
10:53 AM 61.7 °F 34.0 °F 35% 30.21 in 10.0 mi East 9.2 mph - N/A   Clear
11:12 AM 62.2 °F 34.2 °F 35% 30.20 in 10.0 mi ESE 8.1 mph - N/A   Clear
11:33 AM 63.3 °F 33.6 °F 33% 30.18 in 10.0 mi East 8.1 mph - N/A   Clear
11:53 AM 64.2 °F 34.5 °F 33% 30.18 in 10.0 mi East 6.9 mph - N/A   Clear
12:12 PM 64.8 °F 34.5 °F 33% 30.18 in 10.0 mi ESE 10.4 mph - N/A   Clear
12:33 PM 65.3 °F 34.3 °F 32% 30.17 in 10.0 mi East 10.4 mph 18.4 mph N/A   Clear
12:53 PM 65.3 °F 39.4 °F 39% 30.16 in 10.0 mi East 15.0 mph - N/A   Clear
1:12 PM 65.8 °F 40.5 °F 39% 30.15 in 10.0 mi East 12.7 mph - N/A   Clear
1:33 PM 66.2 °F 38.5 °F 36% 30.15 in 10.0 mi ENE 9.2 mph - N/A   Scattered Clouds
1:53 PM 66.9 °F 39.0 °F 36% 30.15 in 10.0 mi ENE 10.4 mph - N/A   Mostly Cloudy
2:12 PM 67.8 °F 39.4 °F 35% 30.14 in 10.0 mi ENE 8.1 mph - N/A   Scattered Clouds
2:33 PM 67.8 °F 39.4 °F 35% 30.13 in 10.0 mi ENE 6.9 mph - N/A   Scattered Clouds
2:53 PM 67.3 °F 39.4 °F 36% 30.13 in 10.0 mi East 8.1 mph - N/A   Mostly Cloudy
3:13 PM 68.4 °F 40.6 °F 36% 30.12 in 10.0 mi ENE 12.7 mph - N/A   Overcast
3:33 PM 69.1 °F 41.5 °F 37% 30.12 in 10.0 mi ENE 12.7 mph - N/A   Overcast
3:53 PM 67.8 °F 40.5 °F 37% 30.11 in 10.0 mi ENE 9.2 mph - N/A   Overcast
4:13 PM 67.5 °F 40.3 °F 37% 30.10 in 10.0 mi ENE 9.2 mph - N/A   Overcast
4:33 PM 67.5 °F 41.9 °F 39% 30.09 in 10.0 mi ENE 11.5 mph - N/A   Mostly Cloudy
4:53 PM 67.3 °F 42.1 °F 40% 30.09 in 10.0 mi East 9.2 mph - N/A   Overcast
5:13 PM 66.2 °F 41.9 °F 41% 30.09 in 10.0 mi South 6.9 mph - N/A   Overcast
5:33 PM 66.6 °F 41.4 °F 40% 30.07 in 10.0 mi SSE 10.4 mph - N/A   Overcast
5:53 PM 67.1 °F 40.8 °F 38% 30.06 in 10.0 mi SE 8.1 mph - N/A   Overcast
6:13 PM 66.0 °F 42.8 °F 43% 30.06 in 10.0 mi South 10.4 mph - N/A   Scattered Clouds
6:33 PM 65.3 °F 45.1 °F 48% 30.05 in 10.0 mi South 9.2 mph 16.1 mph N/A   Mostly Cloudy
6:53 PM 64.6 °F 45.5 °F 50% 30.05 in 10.0 mi SSE 9.2 mph - N/A   Mostly Cloudy
7:13 PM 63.9 °F 45.3 °F 51% 30.04 in 10.0 mi South 5.8 mph - N/A   Overcast
7:33 PM 63.5 °F 45.3 °F 52% 30.04 in 10.0 mi SSE 6.9 mph - N/A   Overcast
7:53 PM 63.1 °F 45.5 °F 53% 30.04 in 10.0 mi SSE 8.1 mph - N/A   Overcast
8:13 PM 61.9 °F 45.9 °F 56% 30.04 in 10.0 mi South 8.1 mph - N/A   Overcast
8:33 PM 61.3 °F 45.7 °F 56% 30.04 in 10.0 mi South 8.1 mph - N/A   Overcast
8:53 PM 60.4 °F 45.5 °F 58% 30.04 in 10.0 mi South 6.9 mph - N/A   Overcast
9:13 PM 59.9 °F 44.1 °F 56% 30.04 in 10.0 mi SSE 6.9 mph - N/A   Overcast
9:32 PM 59.5 °F 42.8 °F 54% 30.04 in 10.0 mi SE 5.8 mph - N/A   Overcast
9:53 PM 59.5 °F 42.8 °F 54% 30.04 in 10.0 mi SE 8.1 mph - N/A   Overcast
10:13 PM 58.1 °F 46.2 °F 65% 30.04 in 10.0 mi East 11.5 mph 16.1 mph N/A   Overcast
10:33 PM 56.8 °F 47.8 °F 72% 30.04 in 10.0 mi ESE 8.1 mph - N/A   Overcast
10:53 PM 56.5 °F 49.1 °F 76% 30.03 in 10.0 mi ESE 5.8 mph - N/A   Overcast
11:13 PM 56.7 °F 48.4 °F 74% 30.03 in 10.0 mi ESE 9.2 mph - N/A   Overcast
11:33 PM 56.5 °F 48.4 °F 74% 30.02 in 10.0 mi ESE 8.1 mph - N/A   Overcast
11:53 PM 56.5 °F 48.2 °F 74% 30.02 in 10.0 mi ESE 10.4 mph - N/A   Overcast